Location: Archemont
(49.1579°N, 1.7598°E)
Time: 09:59:37
(UTC+00:00)

deb Explorer IX - Pass Details

Date: 19 April 2024
Orbit: 513 x 891 km, 38.7° (Epoch: 23 May)

Event Time Altitude Azimuth Distance (km) Brightness Sun altitude
Rises 14:55:14 0° 261° (W) 3,518 ? 36.7°
Reaches altitude 10° 14:58:15 10° 249° (WSW) 2,576 ? 36.2°
Maximum altitude 15:03:13 26° 196° (SSW) 1,690 ? 35.5°
Drops below altitude 10° 15:08:00 10° 142° (SE) 2,483 ? 34.8°
Sets 15:10:52 0° 130° (SE) 3,366 ? 34.4°
